This is the latest recevied weather packets stored in our database for station/object AC0MR. If no packets are shown the sender has not sent any weather packets the latest 10 day(s).
| Time | Temp. | Humidity | Pressure | Rain* | Wind** | Luminosity | Snow |
|---|---|---|---|---|---|---|---|
| 1777245320 | 21.11° C | 55% | 1010.4 hPa | 0 mm | - | 121 W/m² | - |
| 1777244717 | 21.11° C | 53% | 1010.3 hPa | 0 mm | - | 146 W/m² | - |
| 1777244120 | 21.11° C | 54% | 1010.1 hPa | 0 mm | - | 178 W/m² | - |
| 1777243520 | 21.67° C | 53% | 1010.2 hPa | 0 mm | - | 209 W/m² | - |
| 1777242919 | 21.67° C | 53% | 1010.5 hPa | 0 mm | - | 219 W/m² | - |
| 1777242319 | 21.67° C | 52% | 1010.8 hPa | 0 mm | - | 222 W/m² | - |
| 1777241719 | 21.67° C | 50% | 1010.8 hPa | 0 mm | - | 263 W/m² | - |
| 1777241120 | 22.22° C | 53% | 1010.9 hPa | 0 mm | - | 326 W/m² | - |
| 1777240519 | 22.22° C | 51% | 1011.1 hPa | 0 mm | - | 306 W/m² | - |
| 1777239919 | 22.22° C | 50% | 1011.3 hPa | 0 mm | - | 358 W/m² | - |
| 1777239319 | 22.78° C | 50% | 1011.2 hPa | 0 mm | - | 412 W/m² | - |
| 1777238720 | 22.78° C | 49% | 1011.3 hPa | 0 mm | - | 482 W/m² | - |
| 1777238119 | 22.78° C | 49% | 1011.5 hPa | 0 mm | - | 651 W/m² | - |
| 1777237520 | 22.78° C | 50% | 1011.6 hPa | 0 mm | - | 696 W/m² | - |
| 1777236919 | 23.33° C | 51% | 1011.9 hPa | 0 mm | - | 740 W/m² | - |
| 1777236319 | 22.78° C | 53% | 1011.9 hPa | 0 mm | - | 753 W/m² | - |
| 1777235719 | 22.22° C | 52% | 1011.9 hPa | 0 mm | - | 620 W/m² | - |
| 1777235119 | 22.22° C | 54% | 1011.9 hPa | 0 mm | - | 527 W/m² | - |
| 1777234519 | 22.22° C | 52% | 1011.8 hPa | 0 mm | - | 433 W/m² | - |
| 1777233919 | 22.22° C | 53% | 1012 hPa | 0 mm | - | 605 W/m² | - |
| 1777233320 | 22.78° C | 53% | 1012.4 hPa | 0 mm | - | 725 W/m² | - |
| 1777232719 | 22.22° C | 53% | 1012.8 hPa | 0 mm | - | 851 W/m² | - |
| 1777232119 | 22.22° C | 54% | 1012.9 hPa | 0 mm | - | 827 W/m² | - |
| 1777231519 | 21.67° C | 57% | 1012.9 hPa | 0 mm | - | 802 W/m² | - |
| 1777230919 | 21.67° C | 55% | 1013.1 hPa | 0 mm | - | 880 W/m² | - |
* Rain latest hour (hover to see other rain measurements)
** Current wind speed in m/s (hover to see current wind gust speed)